When you browse on this site, cookies collect data to enhance your experience and personalize the content and advertising you see.
Visit our Privacy Policy to learn more. By continuing to use the site, you agree to this use of cookies and data.
  • In Germany
  • List of Countries
  • For 7 days
  • Water Temperature
  • Weather Map
  • Weather Widgets
  • user-avatar
    Login

    Hourly Weather Volendam

    Today, 17 February, Monday

    Time Temperature Precipitation Wind Pressure Humidity
    00:00 +6°C° 0 mm 9 mps 752 mmHg 71%
    01:00 +6°C° 0 mm 10 mps 752 mmHg 68%
    02:00 +5°C° 0 mm 10 mps 753 mmHg 66%
    03:00 +5°C° 0 mm 10 mps 753 mmHg 63%
    04:00 +5°C° 0 mm 10 mps 754 mmHg 65%
    05:00 +5°C° 0 mm 10 mps 755 mmHg 67%
    06:00 +5°C° 0 mm 8 mps 755 mmHg 74%
    07:00 +5°C° 0 mm 9 mps 755 mmHg 74%
    08:00 +6°C° 0 mm 10 mps 755 mmHg 73%
    09:00 +6°C° 0 mm 10 mps 755 mmHg 73%
    10:00 +6°C° 0.2 mm 11 mps 755 mmHg 73%
    11:00 +6°C° 0.2 mm 11 mps 755 mmHg 73%
    12:00 +6°C° 0 mm 9 mps 756 mmHg 75%
    13:00 +6°C° 0.1 mm 9 mps 756 mmHg 71%
    14:00 +7°C° 0.1 mm 9 mps 756 mmHg 68%
    15:00 +7°C° 0.1 mm 9 mps 756 mmHg 64%
    16:00 +6°C° 0.1 mm 9 mps 756 mmHg 68%
    17:00 +6°C° 0.1 mm 8 mps 756 mmHg 73%
    18:00 +6°C° 0.1 mm 7 mps 757 mmHg 78%
    19:00 +6°C° 0.3 mm 8 mps 757 mmHg 77%
    20:00 +6°C° 0.3 mm 8 mps 757 mmHg 77%
    21:00 +6°C° 0.3 mm 8 mps 758 mmHg 76%
    22:00 +5°C° 0.1 mm 8 mps 759 mmHg 77%
    23:00 +5°C° 0.1 mm 8 mps 759 mmHg 78%

    Tomorrow, 18 February, Tuesday

    Time Temperature Precipitation Wind Pressure Humidity
    00:00 +5°C° 0.1 mm 8 mps 760 mmHg 78%
    01:00 +4°C° 0 mm 8 mps 760 mmHg 75%
    02:00 +4°C° 0 mm 8 mps 761 mmHg 72%
    03:00 +2°C° 0 mm 8 mps 761 mmHg 69%
    04:00 +2°C° 0 mm 8 mps 762 mmHg 69%
    05:00 +2°C° 0 mm 8 mps 762 mmHg 70%
    06:00 +3°C° 0 mm 7 mps 763 mmHg 70%
    07:00 +2°C° 0 mm 8 mps 763 mmHg 69%
    08:00 +4°C° 0 mm 8 mps 764 mmHg 68%
    09:00 +4°C° 0 mm 8 mps 764 mmHg 66%
    10:00 +5°C° 0.1 mm 8 mps 764 mmHg 65%
    11:00 +5°C° 0.1 mm 9 mps 764 mmHg 64%
    12:00 +6°C° 0.1 mm 9 mps 764 mmHg 62%
    13:00 +6°C° 0 mm 9 mps 763 mmHg 63%
    14:00 +6°C° 0 mm 9 mps 763 mmHg 63%
    15:00 +6°C° 0 mm 9 mps 762 mmHg 64%
    16:00 +6°C° 0 mm 9 mps 762 mmHg 66%
    17:00 +6°C° 0 mm 9 mps 761 mmHg 69%
    18:00 +5°C° 0 mm 8 mps 761 mmHg 71%
    19:00 +5°C° 0.2 mm 8 mps 760 mmHg 74%
    20:00 +5°C° 0.2 mm 8 mps 760 mmHg 78%
    21:00 +5°C° 0.2 mm 8 mps 759 mmHg 82%
    22:00 +5°C° 0.5 mm 8 mps 758 mmHg 82%
    23:00 +4°C° 0.5 mm 8 mps 758 mmHg 83%

    Day after tomorrow, 19 February, Wednesday

    Time Temperature Precipitation Wind Pressure Humidity
    00:00 +3°C° 0.5 mm 9 mps 757 mmHg 84%
    01:00 +3°C° 0.4 mm 9 mps 758 mmHg 79%
    02:00 +2°C° 0.4 mm 9 mps 758 mmHg 74%
    03:00 +2°C° 0.4 mm 9 mps 758 mmHg 70%
    04:00 +2°C° 0.2 mm 8 mps 759 mmHg 70%
    05:00 +1°C° 0.2 mm 8 mps 759 mmHg 71%
    06:00 +1°C° 0.2 mm 8 mps 760 mmHg 72%
    07:00 +2°C° 0.1 mm 8 mps 761 mmHg 70%
    08:00 +2°C° 0.1 mm 8 mps 761 mmHg 69%
    09:00 +2°C° 0.1 mm 8 mps 762 mmHg 67%
    10:00 +4°C° 0 mm 8 mps 762 mmHg 67%
    11:00 +4°C° 0 mm 8 mps 762 mmHg 67%
    12:00 +4°C° 0 mm 8 mps 763 mmHg 67%
    13:00 +4°C° 0 mm 8 mps 763 mmHg 66%
    14:00 +4°C° 0 mm 7 mps 763 mmHg 66%
    15:00 +4°C° 0 mm 7 mps 763 mmHg 65%
    16:00 +4°C° 0 mm 6 mps 763 mmHg 68%
    17:00 +3°C° 0 mm 5 mps 763 mmHg 71%
    18:00 +3°C° 0 mm 5 mps 763 mmHg 73%
    19:00 +3°C° 0.1 mm 5 mps 762 mmHg 78%
    20:00 +4°C° 0.1 mm 6 mps 762 mmHg 82%
    21:00 +4°C° 0.1 mm 6 mps 761 mmHg 87%
    22:00 +4°C° 0.2 mm 6 mps 761 mmHg 87%
    23:00 +5°C° 0.2 mm 7 mps 760 mmHg 88%

    20 February, Thursday

    Time Temperature Precipitation Wind Pressure Humidity
    00:00 +5°C° 0.2 mm 7 mps 760 mmHg 88%
    01:00 +5°C° 0.3 mm 8 mps 759 mmHg 88%
    02:00 +6°C° 0.3 mm 8 mps 759 mmHg 87%
    03:00 +6°C° 0.3 mm 9 mps 758 mmHg 86%
    04:00 +6°C° 0 mm 8 mps 758 mmHg 85%
    05:00 +6°C° 0 mm 8 mps 758 mmHg 85%
    06:00 +6°C° 0 mm 8 mps 758 mmHg 84%
    07:00 +6°C° 0 mm 8 mps 758 mmHg 83%
    08:00 +6°C° 0 mm 8 mps 757 mmHg 81%
    09:00 +6°C° 0 mm 8 mps 757 mmHg 80%
    10:00 +6°C° 0 mm 9 mps 757 mmHg 76%
    11:00 +7°C° 0 mm 9 mps 757 mmHg 73%
    12:00 +7°C° 0 mm 9 mps 757 mmHg 70%
    13:00 +7°C° 0 mm 9 mps 756 mmHg 70%
    14:00 +8°C° 0 mm 9 mps 755 mmHg 69%
    15:00 +8°C° 0 mm 9 mps 755 mmHg 69%
    16:00 +8°C° 0.2 mm 10 mps 755 mmHg 73%
    17:00 +7°C° 0.2 mm 11 mps 754 mmHg 76%
    18:00 +7°C° 0.2 mm 12 mps 754 mmHg 80%
    19:00 +6°C° 0.1 mm 11 mps 755 mmHg 76%
    20:00 +5°C° 0.1 mm 10 mps 757 mmHg 72%
    21:00 +3°C° 0.1 mm 9 mps 758 mmHg 68%
    22:00 +3°C° 0 mm 9 mps 759 mmHg 68%
    23:00 +2°C° 0 mm 9 mps 760 mmHg 67%

    21 February, Friday

    Time Temperature Precipitation Wind Pressure Humidity
    00:00 +2°C° 0 mm 9 mps 761 mmHg 66%
    01:00 +2°C° 0 mm 9 mps 762 mmHg 66%
    02:00 +2°C° 0 mm 9 mps 762 mmHg 67%
    03:00 +2°C° 0 mm 9 mps 763 mmHg 67%
    04:00 +2°C° 0 mm 8 mps 764 mmHg 68%
    05:00 +2°C° 0 mm 8 mps 765 mmHg 68%
    06:00 +2°C° 0 mm 8 mps 766 mmHg 69%
    13:00 +5°C° 0 mm 8 mps 769 mmHg 62%
    14:00 +5°C° 0 mm 8 mps 769 mmHg 63%
    15:00 +6°C° 0 mm 8 mps 769 mmHg 63%
    16:00 +5°C° 0 mm 8 mps 768 mmHg 66%
    17:00 +5°C° 0 mm 8 mps 768 mmHg 68%
    18:00 +5°C° 0 mm 8 mps 768 mmHg 71%
    19:00 +5°C° 0 mm 8 mps 768 mmHg 72%
    20:00 +5°C° 0 mm 9 mps 767 mmHg 72%
    21:00 +5°C° 0 mm 10 mps 767 mmHg 73%
    22:00 +5°C° 0.1 mm 10 mps 767 mmHg 74%
    23:00 +6°C° 0.1 mm 10 mps 766 mmHg 75%

    22 February, Saturday

    Time Temperature Precipitation Wind Pressure Humidity
    00:00 +6°C° 0.1 mm 11 mps 766 mmHg 76%
    01:00 +6°C° 0.2 mm 11 mps 766 mmHg 77%
    02:00 +6°C° 0.2 mm 11 mps 765 mmHg 78%
    03:00 +6°C° 0.2 mm 11 mps 765 mmHg 79%
    04:00 +5°C° 0.2 mm 12 mps 764 mmHg 80%
    05:00 +5°C° 0.2 mm 12 mps 764 mmHg 80%
    06:00 +5°C° 0.2 mm 12 mps 764 mmHg 81%
    07:00 +7°C° 0 mm 12 mps 764 mmHg 81%
    08:00 +7°C° 0 mm 12 mps 764 mmHg 82%
    09:00 +7°C° 0 mm 12 mps 764 mmHg 83%
    10:00 +7°C° 0 mm 12 mps 764 mmHg 83%
    11:00 +8°C° 0 mm 12 mps 764 mmHg 83%
    12:00 +8°C° 0 mm 12 mps 764 mmHg 84%
    13:00 +8°C° 0 mm 12 mps 764 mmHg 83%
    14:00 +9°C° 0 mm 12 mps 764 mmHg 82%
    15:00 +9°C° 0 mm 12 mps 764 mmHg 82%
    16:00 +9°C° 0 mm 12 mps 764 mmHg 82%
    17:00 +9°C° 0 mm 12 mps 764 mmHg 82%
    18:00 +9°C° 0 mm 11 mps 764 mmHg 82%
    19:00 +9°C° 0.1 mm 11 mps 765 mmHg 83%
    20:00 +9°C° 0.1 mm 10 mps 765 mmHg 84%
    21:00 +10°C° 0.1 mm 9 mps 765 mmHg 85%
    22:00 +10°C° 0.1 mm 9 mps 765 mmHg 84%
    23:00 +10°C° 0.1 mm 9 mps 766 mmHg 83%
    Show more